Time,TemperatureF,DewpointF,PressureIn,WindDirection,WindDirectionDegrees,WindSpeedMPH,WindSpeedGustMPH,Humidity,HourlyPrecipIn,Conditions,Clouds,dailyrainin,SoftwareType,DateUTC
2013-10-23 00:01:00,42.0,29.0,29.91,SW,225,3.0,9.0,61,0.00,,,0.00,Rainwise IP-100,2013-10-23 04:01:00,
2013-10-23 00:06:00,42.0,29.0,29.91,ENE,67,1.0,7.0,60,0.00,,,0.00,Rainwise IP-100,2013-10-23 04:06:00,
2013-10-23 00:11:00,42.0,29.0,29.91,ESE,112,0.0,5.0,61,0.00,,,0.00,Rainwise IP-100,2013-10-23 04:11:00,
2013-10-23 00:16:00,41.0,31.0,29.91,South,180,7.0,7.0,64,0.00,,,0.00,Rainwise IP-100,2013-10-23 04:16:00,
2013-10-23 00:21:00,41.0,29.0,29.92,SSE,157,7.0,11.0,63,0.00,,,0.00,Rainwise IP-100,2013-10-23 04:21:00,
2013-10-23 00:26:00,41.0,31.0,29.92,South,180,6.0,9.0,64,0.00,,,0.00,Rainwise IP-100,2013-10-23 04:26:00,
2013-10-23 00:31:00,41.0,31.0,29.92,South,180,6.0,9.0,65,0.00,,,0.00,Rainwise IP-100,2013-10-23 04:31:00,
2013-10-23 00:36:00,41.0,32.0,29.92,SSE,157,7.0,9.0,68,0.00,,,0.00,Rainwise IP-100,2013-10-23 04:36:00,
2013-10-23 00:41:00,41.0,32.0,29.92,South,180,7.0,13.0,68,0.00,,,0.00,Rainwise IP-100,2013-10-23 04:41:00,
2013-10-23 00:46:00,40.0,31.0,29.92,South,180,9.0,12.0,69,0.00,,,0.00,Rainwise IP-100,2013-10-23 04:46:00,
2013-10-23 00:51:00,40.0,32.0,29.92,SW,225,7.0,9.0,70,0.00,,,0.00,Rainwise IP-100,2013-10-23 04:51:00,
2013-10-23 00:56:00,40.0,32.0,29.92,SSW,202,6.0,10.0,70,0.00,,,0.00,Rainwise IP-100,2013-10-23 04:56:00,
2013-10-23 01:01:00,40.0,31.0,29.92,SSW,202,7.0,9.0,68,0.00,,,0.00,Rainwise IP-100,2013-10-23 05:01:00,
2013-10-23 01:06:00,40.0,32.0,29.92,SW,225,6.0,9.0,70,0.00,,,0.00,Rainwise IP-100,2013-10-23 05:06:00,
2013-10-23 01:11:00,40.0,31.0,29.91,SSW,202,7.0,10.0,69,0.00,,,0.00,Rainwise IP-100,2013-10-23 05:11:00,
2013-10-23 01:16:00,40.0,31.0,29.91,SSE,157,7.0,10.0,68,0.00,,,0.00,Rainwise IP-100,2013-10-23 05:16:00,
2013-10-23 01:21:00,40.0,32.0,29.91,SSW,202,7.0,9.0,70,0.00,,,0.00,Rainwise IP-100,2013-10-23 05:21:00,
2013-10-23 01:26:00,40.0,31.0,29.91,SSW,202,11.0,11.0,69,0.00,,,0.00,Rainwise IP-100,2013-10-23 05:26:00,
2013-10-23 01:31:00,40.0,31.0,29.90,SSW,202,6.0,12.0,69,0.00,,,0.00,Rainwise IP-100,2013-10-23 05:31:00,
2013-10-23 01:36:00,40.0,31.0,29.90,SW,225,4.0,12.0,69,0.00,,,0.00,Rainwise IP-100,2013-10-23 05:36:00,
2013-10-23 01:41:00,40.0,32.0,29.91,WSW,247,4.0,7.0,72,0.00,,,0.00,Rainwise IP-100,2013-10-23 05:41:00,
2013-10-23 01:46:00,40.0,32.0,29.91,SW,225,4.0,7.0,71,0.00,,,0.00,Rainwise IP-100,2013-10-23 05:46:00,
2013-10-23 01:51:00,40.0,32.0,29.91,SW,225,4.0,7.0,71,0.00,,,0.00,Rainwise IP-100,2013-10-23 05:51:00,
2013-10-23 01:56:00,39.0,32.0,29.91,SW,225,2.0,6.0,73,0.00,,,0.00,Rainwise IP-100,2013-10-23 05:56:00,
2013-10-23 02:01:00,39.0,32.0,29.91,SW,225,0.0,2.0,74,0.00,,,0.00,Rainwise IP-100,2013-10-23 06:01:00,
2013-10-23 02:06:00,38.0,32.0,29.91,SW,225,2.0,2.0,77,0.00,,,0.00,Rainwise IP-100,2013-10-23 06:06:00,
2013-10-23 02:11:00,38.0,32.0,29.92,South,180,2.0,3.0,77,0.00,,,0.00,Rainwise IP-100,2013-10-23 06:11:00,
2013-10-23 02:17:00,38.0,31.0,29.92,SSE,157,4.0,4.0,74,0.00,,,0.00,Rainwise IP-100,2013-10-23 06:17:00,
2013-10-23 02:22:00,39.0,31.0,29.91,SSE,157,5.0,6.0,71,0.00,,,0.00,Rainwise IP-100,2013-10-23 06:22:00,
2013-10-23 02:27:00,40.0,32.0,29.91,South,180,7.0,7.0,71,0.00,,,0.00,Rainwise IP-100,2013-10-23 06:27:00,
2013-10-23 02:32:00,39.0,32.0,29.90,SW,225,2.0,8.0,73,0.00,,,0.00,Rainwise IP-100,2013-10-23 06:32:00,
2013-10-23 02:37:00,39.0,32.0,29.90,SSW,202,4.0,5.0,77,0.00,,,0.00,Rainwise IP-100,2013-10-23 06:37:00,
2013-10-23 02:42:00,39.0,32.0,29.90,SSW,202,5.0,6.0,75,0.00,,,0.00,Rainwise IP-100,2013-10-23 06:42:00,
2013-10-23 02:47:00,39.0,32.0,29.90,WSW,247,5.0,6.0,75,0.00,,,0.00,Rainwise IP-100,2013-10-23 06:47:00,
2013-10-23 02:52:00,38.0,32.0,29.90,WSW,247,2.0,5.0,78,0.00,,,0.00,Rainwise IP-100,2013-10-23 06:52:00,
2013-10-23 02:57:00,38.0,32.0,29.90,SW,225,3.0,6.0,78,0.00,,,0.00,Rainwise IP-100,2013-10-23 06:57:00,
2013-10-23 03:02:00,38.0,32.0,29.90,SW,225,6.0,9.0,78,0.00,,,0.00,Rainwise IP-100,2013-10-23 07:02:00,
2013-10-23 03:07:00,39.0,32.0,29.90,SW,225,6.0,7.0,76,0.00,,,0.00,Rainwise IP-100,2013-10-23 07:07:00,
2013-10-23 03:12:00,39.0,32.0,29.90,SW,225,4.0,7.0,77,0.00,,,0.00,Rainwise IP-100,2013-10-23 07:12:00,
2013-10-23 03:17:00,38.0,32.0,29.90,SW,225,4.0,6.0,78,0.00,,,0.00,Rainwise IP-100,2013-10-23 07:17:00,
2013-10-23 03:22:00,39.0,33.0,29.90,WSW,247,5.0,8.0,78,0.00,,,0.00,Rainwise IP-100,2013-10-23 07:22:00,
2013-10-23 03:27:00,39.0,32.0,29.90,SW,225,6.0,9.0,77,0.00,,,0.00,Rainwise IP-100,2013-10-23 07:27:00,
2013-10-23 03:32:00,39.0,33.0,29.90,SW,225,6.0,9.0,78,0.00,,,0.00,Rainwise IP-100,2013-10-23 07:32:00,
2013-10-23 03:37:00,39.0,32.0,29.90,SW,225,9.0,10.0,77,0.00,,,0.00,Rainwise IP-100,2013-10-23 07:37:00,
2013-10-23 03:42:00,39.0,33.0,29.90,SW,225,7.0,12.0,78,0.00,,,0.00,Rainwise IP-100,2013-10-23 07:42:00,
2013-10-23 03:47:00,40.0,33.0,29.90,SW,225,6.0,10.0,76,0.00,,,0.00,Rainwise IP-100,2013-10-23 07:47:00,
2013-10-23 03:52:00,40.0,33.0,29.89,SW,225,8.0,13.0,76,0.00,,,0.00,Rainwise IP-100,2013-10-23 07:52:00,
2013-10-23 03:57:00,40.0,33.0,29.89,SSW,202,7.0,13.0,77,0.00,,,0.00,Rainwise IP-100,2013-10-23 07:57:00,
2013-10-23 04:02:00,40.0,33.0,29.89,SW,225,8.0,14.0,75,0.00,,,0.00,Rainwise IP-100,2013-10-23 08:02:00,
2013-10-23 04:07:00,40.0,33.0,29.89,SW,225,7.0,15.0,76,0.00,,,0.00,Rainwise IP-100,2013-10-23 08:07:00,
2013-10-23 04:12:00,40.0,33.0,29.89,SSW,202,9.0,15.0,76,0.00,,,0.00,Rainwise IP-100,2013-10-23 08:12:00,
2013-10-23 04:17:00,40.0,33.0,29.89,West,270,10.0,13.0,74,0.00,,,0.00,Rainwise IP-100,2013-10-23 08:17:00,
2013-10-23 04:22:00,40.0,32.0,29.89,West,270,7.0,13.0,73,0.00,,,0.00,Rainwise IP-100,2013-10-23 08:22:00,
2013-10-23 04:27:00,40.0,33.0,29.89,SW,225,7.0,10.0,75,0.00,,,0.00,Rainwise IP-100,2013-10-23 08:27:00,
2013-10-23 04:32:00,40.0,33.0,29.88,SW,225,7.0,10.0,75,0.00,,,0.00,Rainwise IP-100,2013-10-23 08:32:00,
2013-10-23 04:37:00,40.0,33.0,29.88,SW,225,2.0,10.0,75,0.00,,,0.00,Rainwise IP-100,2013-10-23 08:37:00,
2013-10-23 04:42:00,40.0,32.0,29.89,SW,225,8.0,9.0,73,0.00,,,0.00,Rainwise IP-100,2013-10-23 08:42:00,
2013-10-23 04:47:00,40.0,33.0,29.89,WSW,247,7.0,12.0,74,0.00,,,0.00,Rainwise IP-100,2013-10-23 08:47:00,
2013-10-23 04:52:00,40.0,32.0,29.89,WSW,247,10.0,12.0,73,0.00,,,0.00,Rainwise IP-100,2013-10-23 08:52:00,
2013-10-23 04:57:00,40.0,33.0,29.89,WSW,247,6.0,11.0,74,0.00,,,0.00,Rainwise IP-100,2013-10-23 08:57:00,
2013-10-23 05:02:00,40.0,32.0,29.89,WSW,247,10.0,13.0,73,0.00,,,0.00,Rainwise IP-100,2013-10-23 09:02:00,
2013-10-23 05:07:00,40.0,32.0,29.89,WSW,247,7.0,13.0,73,0.00,,,0.00,Rainwise IP-100,2013-10-23 09:07:00,
2013-10-23 05:12:00,41.0,33.0,29.88,WSW,247,6.0,15.0,73,0.00,,,0.00,Rainwise IP-100,2013-10-23 09:12:00,
2013-10-23 05:17:00,40.0,32.0,29.88,WNW,292,7.0,9.0,73,0.00,,,0.00,Rainwise IP-100,2013-10-23 09:17:00,
2013-10-23 05:22:00,40.0,33.0,29.88,WSW,247,5.0,11.0,74,0.00,,,0.00,Rainwise IP-100,2013-10-23 09:22:00,
2013-10-23 05:27:00,40.0,32.0,29.88,West,270,9.0,12.0,73,0.00,,,0.00,Rainwise IP-100,2013-10-23 09:27:00,
2013-10-23 05:32:00,40.0,33.0,29.88,SW,225,6.0,12.0,74,0.00,,,0.00,Rainwise IP-100,2013-10-23 09:32:00,
2013-10-23 05:37:00,40.0,33.0,29.88,WSW,247,11.0,15.0,74,0.00,,,0.00,Rainwise IP-100,2013-10-23 09:37:00,
2013-10-23 05:42:00,40.0,32.0,29.87,West,270,9.0,16.0,73,0.00,,,0.00,Rainwise IP-100,2013-10-23 09:42:00,
2013-10-23 05:47:00,40.0,33.0,29.87,WSW,247,10.0,10.0,74,0.00,,,0.00,Rainwise IP-100,2013-10-23 09:47:00,
2013-10-23 05:52:00,40.0,33.0,29.88,WSW,247,13.0,13.0,74,0.00,,,0.00,Rainwise IP-100,2013-10-23 09:52:00,
2013-10-23 05:57:00,40.0,33.0,29.88,WSW,247,9.0,13.0,74,0.00,,,0.00,Rainwise IP-100,2013-10-23 09:57:00,
2013-10-23 06:02:00,40.0,33.0,29.88,WSW,247,8.0,15.0,76,0.00,,,0.00,Rainwise IP-100,2013-10-23 10:02:00,
2013-10-23 06:07:00,40.0,33.0,29.88,WSW,247,12.0,15.0,76,0.00,,,0.00,Rainwise IP-100,2013-10-23 10:07:00,
2013-10-23 06:12:00,40.0,33.0,29.87,WSW,247,12.0,14.0,74,0.00,,,0.00,Rainwise IP-100,2013-10-23 10:12:00,
2013-10-23 06:17:00,40.0,33.0,29.87,WSW,247,10.0,13.0,75,0.00,,,0.00,Rainwise IP-100,2013-10-23 10:17:00,
2013-10-23 06:22:00,40.0,33.0,29.87,West,270,9.0,14.0,75,0.00,,,0.00,Rainwise IP-100,2013-10-23 10:22:00,
2013-10-23 06:27:00,40.0,33.0,29.87,West,270,9.0,12.0,75,0.00,,,0.00,Rainwise IP-100,2013-10-23 10:27:00,
2013-10-23 06:32:00,40.0,33.0,29.87,West,270,10.0,15.0,75,0.00,,,0.00,Rainwise IP-100,2013-10-23 10:32:00,
2013-10-23 06:37:00,40.0,33.0,29.87,WSW,247,5.0,15.0,75,0.00,,,0.00,Rainwise IP-100,2013-10-23 10:37:00,
2013-10-23 06:42:00,40.0,33.0,29.87,West,270,5.0,12.0,75,0.00,,,0.00,Rainwise IP-100,2013-10-23 10:42:00,
2013-10-23 06:47:00,39.0,32.0,29.87,WSW,247,4.0,9.0,76,0.00,,,0.00,Rainwise IP-100,2013-10-23 10:47:00,
2013-10-23 06:52:00,39.0,32.0,29.88,West,270,2.0,6.0,77,0.00,,,0.00,Rainwise IP-100,2013-10-23 10:52:00,
2013-10-23 06:57:00,39.0,33.0,29.88,SSW,202,4.0,5.0,78,0.00,,,0.00,Rainwise IP-100,2013-10-23 10:57:00,
2013-10-23 07:02:00,39.0,33.0,29.88,North,360,0.0,8.0,78,0.00,,,0.00,Rainwise IP-100,2013-10-23 11:02:00,
2013-10-23 07:07:00,38.0,32.0,29.88,SE,135,0.0,6.0,78,0.00,,,0.00,Rainwise IP-100,2013-10-23 11:07:00,
2013-10-23 07:12:00,38.0,32.0,29.88,SW,225,2.0,4.0,78,0.00,,,0.00,Rainwise IP-100,2013-10-23 11:12:00,
2013-10-23 07:17:00,38.0,32.0,29.88,WSW,247,5.0,10.0,78,0.00,,,0.00,Rainwise IP-100,2013-10-23 11:17:00,
2013-10-23 07:22:00,38.0,32.0,29.87,NE,45,2.0,5.0,78,0.00,,,0.00,Rainwise IP-100,2013-10-23 11:22:00,
2013-10-23 07:27:00,38.0,32.0,29.87,SSW,202,2.0,6.0,79,0.00,,,0.00,Rainwise IP-100,2013-10-23 11:27:00,
2013-10-23 07:32:00,38.0,32.0,29.88,SSW,202,0.0,2.0,80,0.00,,,0.00,Rainwise IP-100,2013-10-23 11:32:00,
2013-10-23 07:37:00,37.0,32.0,29.88,SSE,157,1.0,6.0,81,0.00,,,0.00,Rainwise IP-100,2013-10-23 11:37:00,
2013-10-23 07:42:00,37.0,32.0,29.88,SSE,157,0.0,1.0,83,0.00,,,0.00,Rainwise IP-100,2013-10-23 11:42:00,
2013-10-23 07:47:00,37.0,32.0,29.88,SSE,157,3.0,3.0,81,0.00,,,0.00,Rainwise IP-100,2013-10-23 11:47:00,
2013-10-23 07:52:00,38.0,32.0,29.88,WSW,247,1.0,9.0,79,0.00,,,0.00,Rainwise IP-100,2013-10-23 11:52:00,
2013-10-23 07:57:00,38.0,32.0,29.88,SW,225,2.0,4.0,80,0.00,,,0.00,Rainwise IP-100,2013-10-23 11:57:00,
2013-10-23 08:02:00,38.0,33.0,29.88,SW,225,2.0,5.0,82,0.00,,,0.00,Rainwise IP-100,2013-10-23 12:02:00,
2013-10-23 08:07:00,38.0,33.0,29.88,South,180,0.0,5.0,81,0.00,,,0.00,Rainwise IP-100,2013-10-23 12:07:00,
2013-10-23 08:12:00,38.0,32.0,29.88,SW,225,3.0,6.0,80,0.00,,,0.00,Rainwise IP-100,2013-10-23 12:12:00,
2013-10-23 08:17:00,38.0,32.0,29.88,SW,225,4.0,6.0,80,0.00,,,0.00,Rainwise IP-100,2013-10-23 12:17:00,
2013-10-23 08:22:00,39.0,33.0,29.88,South,180,4.0,5.0,80,0.00,,,0.00,Rainwise IP-100,2013-10-23 12:22:00,
2013-10-23 08:27:00,39.0,33.0,29.88,SSE,157,4.0,6.0,78,0.00,,,0.00,Rainwise IP-100,2013-10-23 12:27:00,
2013-10-23 08:32:00,40.0,35.0,29.88,SSW,202,4.0,7.0,78,0.00,,,0.00,Rainwise IP-100,2013-10-23 12:32:00,
2013-10-23 08:37:00,40.0,35.0,29.88,SW,225,4.0,8.0,78,0.00,,,0.00,Rainwise IP-100,2013-10-23 12:37:00,
2013-10-23 08:42:00,40.0,35.0,29.88,South,180,6.0,7.0,78,0.00,,,0.00,Rainwise IP-100,2013-10-23 12:42:00,
2013-10-23 08:47:00,40.0,33.0,29.88,South,180,7.0,9.0,76,0.00,,,0.00,Rainwise IP-100,2013-10-23 12:47:00,
2013-10-23 08:52:00,40.0,33.0,29.89,SSW,202,9.0,10.0,76,0.00,,,0.00,Rainwise IP-100,2013-10-23 12:52:00,
2013-10-23 08:57:00,40.0,33.0,29.89,South,180,6.0,9.0,77,0.00,,,0.00,Rainwise IP-100,2013-10-23 12:57:00,
2013-10-23 09:02:00,41.0,35.0,29.88,SW,225,6.0,7.0,76,0.00,,,0.00,Rainwise IP-100,2013-10-23 13:02:00,
2013-10-23 09:07:00,41.0,35.0,29.88,SW,225,2.0,7.0,77,0.00,,,0.00,Rainwise IP-100,2013-10-23 13:07:00,
2013-10-23 09:12:00,42.0,35.0,29.87,SSE,157,6.0,7.0,73,0.00,,,0.00,Rainwise IP-100,2013-10-23 13:12:00,
2013-10-23 09:17:00,42.0,35.0,29.87,South,180,6.0,10.0,73,0.00,,,0.00,Rainwise IP-100,2013-10-23 13:17:00,
2013-10-23 09:22:00,42.0,35.0,29.88,West,270,4.0,9.0,73,0.00,,,0.00,Rainwise IP-100,2013-10-23 13:22:00,
2013-10-23 09:27:00,42.0,35.0,29.88,SW,225,5.0,7.0,73,0.00,,,0.00,Rainwise IP-100,2013-10-23 13:27:00,
2013-10-23 09:32:00,43.0,35.0,29.88,WSW,247,6.0,8.0,70,0.00,,,0.00,Rainwise IP-100,2013-10-23 13:32:00,
2013-10-23 09:37:00,43.0,33.0,29.88,SW,225,9.0,10.0,69,0.00,,,0.00,Rainwise IP-100,2013-10-23 13:37:00,
2013-10-23 09:42:00,43.0,33.0,29.88,SW,225,6.0,12.0,68,0.00,,,0.00,Rainwise IP-100,2013-10-23 13:42:00,
2013-10-23 09:47:00,43.0,35.0,29.88,SW,225,4.0,10.0,70,0.00,,,0.00,Rainwise IP-100,2013-10-23 13:47:00,
2013-10-23 09:52:00,43.0,33.0,29.88,SSW,202,7.0,10.0,67,0.00,,,0.00,Rainwise IP-100,2013-10-23 13:52:00,
2013-10-23 09:57:00,43.0,33.0,29.88,SW,225,6.0,10.0,68,0.00,,,0.00,Rainwise IP-100,2013-10-23 13:57:00,
2013-10-23 10:02:00,43.0,32.0,29.87,SSW,202,7.0,10.0,66,0.00,,,0.00,Rainwise IP-100,2013-10-23 14:02:00,
2013-10-23 10:07:00,43.0,32.0,29.87,SW,225,3.0,10.0,66,0.00,,,0.00,Rainwise IP-100,2013-10-23 14:07:00,
2013-10-23 10:12:00,44.0,33.0,29.87,South,180,5.0,7.0,65,0.00,,,0.00,Rainwise IP-100,2013-10-23 14:12:00,
2013-10-23 10:17:00,44.0,33.0,29.87,West,270,6.0,10.0,66,0.00,,,0.00,Rainwise IP-100,2013-10-23 14:17:00,
2013-10-23 10:22:00,44.0,32.0,29.87,SSW,202,0.0,10.0,63,0.00,,,0.00,Rainwise IP-100,2013-10-23 14:22:00,
2013-10-23 10:27:00,43.0,32.0,29.87,SSW,202,7.0,9.0,66,0.00,,,0.00,Rainwise IP-100,2013-10-23 14:27:00,
2013-10-23 10:32:00,43.0,32.0,29.87,WSW,247,4.0,8.0,64,0.00,,,0.00,Rainwise IP-100,2013-10-23 14:32:00,
2013-10-23 10:37:00,43.0,32.0,29.87,SSW,202,6.0,12.0,66,0.00,,,0.00,Rainwise IP-100,2013-10-23 14:37:00,
2013-10-23 10:42:00,44.0,33.0,29.87,SW,225,5.0,8.0,64,0.00,,,0.00,Rainwise IP-100,2013-10-23 14:42:00,
2013-10-23 10:47:00,45.0,33.0,29.87,West,270,6.0,9.0,63,0.00,,,0.00,Rainwise IP-100,2013-10-23 14:47:00,
2013-10-23 10:52:00,44.0,32.0,29.85,SW,225,3.0,10.0,62,0.00,,,0.00,Rainwise IP-100,2013-10-23 14:52:00,
2013-10-23 10:57:00,44.0,31.0,29.85,SSW,202,7.0,14.0,60,0.00,,,0.00,Rainwise IP-100,2013-10-23 14:57:00,
2013-10-23 11:02:00,45.0,33.0,29.85,SW,225,2.0,11.0,64,0.00,,,0.00,Rainwise IP-100,2013-10-23 15:02:00,
2013-10-23 11:07:00,45.0,32.0,29.85,SW,225,0.0,9.0,61,0.00,,,0.00,Rainwise IP-100,2013-10-23 15:07:00,
2013-10-23 11:12:00,45.0,32.0,29.85,West,270,5.0,7.0,60,0.00,,,0.00,Rainwise IP-100,2013-10-23 15:12:00,
2013-10-23 11:17:00,45.0,32.0,29.85,SW,225,5.0,10.0,59,0.00,,,0.00,Rainwise IP-100,2013-10-23 15:17:00,
2013-10-23 11:22:00,45.0,32.0,29.85,SE,135,10.0,15.0,60,0.00,,,0.00,Rainwise IP-100,2013-10-23 15:22:00,
2013-10-23 11:27:00,45.0,32.0,29.85,SW,225,10.0,13.0,59,0.00,,,0.00,Rainwise IP-100,2013-10-23 15:27:00,
2013-10-23 11:32:00,46.0,33.0,29.85,SW,225,4.0,14.0,60,0.00,,,0.00,Rainwise IP-100,2013-10-23 15:32:00,
2013-10-23 11:37:00,46.0,32.0,29.85,SSW,202,7.0,12.0,59,0.00,,,0.00,Rainwise IP-100,2013-10-23 15:37:00,
2013-10-23 11:42:00,45.0,31.0,29.85,SSW,202,10.0,10.0,57,0.00,,,0.00,Rainwise IP-100,2013-10-23 15:42:00,
2013-10-23 11:47:00,45.0,31.0,29.85,WSW,247,7.0,13.0,56,0.00,,,0.00,Rainwise IP-100,2013-10-23 15:47:00,
2013-10-23 11:52:00,45.0,31.0,29.85,WSW,247,6.0,13.0,56,0.00,,,0.00,Rainwise IP-100,2013-10-23 15:52:00,
2013-10-23 11:57:00,45.0,31.0,29.85,SW,225,6.0,9.0,56,0.00,,,0.00,Rainwise IP-100,2013-10-23 15:57:00,
2013-10-23 12:02:00,45.0,31.0,29.84,SW,225,7.0,12.0,57,0.00,,,0.00,Rainwise IP-100,2013-10-23 16:02:00,
2013-10-23 12:07:00,45.0,31.0,29.84,NW,315,5.0,10.0,58,0.00,,,0.00,Rainwise IP-100,2013-10-23 16:07:00,
2013-10-23 12:12:00,45.0,31.0,29.84,WNW,292,7.0,10.0,57,0.00,,,0.00,Rainwise IP-100,2013-10-23 16:12:00,
2013-10-23 12:17:00,46.0,32.0,29.84,NNW,337,12.0,14.0,59,0.00,,,0.00,Rainwise IP-100,2013-10-23 16:17:00,
2013-10-23 12:22:00,46.0,31.0,29.83,West,270,6.0,15.0,55,0.00,,,0.00,Rainwise IP-100,2013-10-23 16:22:00,
2013-10-23 12:27:00,46.0,29.0,29.83,South,180,5.0,9.0,53,0.00,,,0.00,Rainwise IP-100,2013-10-23 16:27:00,
2013-10-23 12:32:00,47.0,32.0,29.83,SW,225,7.0,11.0,56,0.00,,,0.00,Rainwise IP-100,2013-10-23 16:32:00,
2013-10-23 12:37:00,46.0,31.0,29.83,South,180,4.0,14.0,54,0.00,,,0.00,Rainwise IP-100,2013-10-23 16:37:00,
2013-10-23 12:42:00,47.0,31.0,29.82,SW,225,9.0,12.0,53,0.00,,,0.00,Rainwise IP-100,2013-10-23 16:42:00,
2013-10-23 12:47:00,47.0,31.0,29.82,West,270,1.0,12.0,53,0.00,,,0.00,Rainwise IP-100,2013-10-23 16:47:00,
2013-10-23 12:52:00,47.0,31.0,29.81,SW,225,6.0,16.0,52,0.00,,,0.00,Rainwise IP-100,2013-10-23 16:52:00,
2013-10-23 12:57:00,48.0,32.0,29.81,WSW,247,2.0,10.0,53,0.00,,,0.00,Rainwise IP-100,2013-10-23 16:57:00,
2013-10-23 13:02:00,47.0,31.0,29.80,West,270,8.0,10.0,53,0.00,,,0.00,Rainwise IP-100,2013-10-23 17:02:00,
2013-10-23 13:07:00,46.0,29.0,29.80,West,270,0.0,11.0,51,0.00,,,0.00,Rainwise IP-100,2013-10-23 17:07:00,
2013-10-23 13:12:00,47.0,31.0,29.80,WSW,247,9.0,10.0,52,0.00,,,0.00,Rainwise IP-100,2013-10-23 17:12:00,
2013-10-23 13:17:00,47.0,31.0,29.80,WSW,247,6.0,10.0,52,0.00,,,0.00,Rainwise IP-100,2013-10-23 17:17:00,
2013-10-23 13:22:00,47.0,29.0,29.80,NNW,337,2.0,8.0,49,0.00,,,0.00,Rainwise IP-100,2013-10-23 17:22:00,
2013-10-23 13:27:00,47.0,32.0,29.80,North,360,5.0,7.0,55,0.00,,,0.00,Rainwise IP-100,2013-10-23 17:27:00,
2013-10-23 13:32:00,47.0,31.0,29.79,NW,315,9.0,12.0,52,0.00,,,0.00,Rainwise IP-100,2013-10-23 17:32:00,
2013-10-23 13:37:00,46.0,31.0,29.79,North,360,7.0,11.0,54,0.00,,,0.00,Rainwise IP-100,2013-10-23 17:37:00,
2013-10-23 13:42:00,46.0,31.0,29.80,NW,315,7.0,11.0,54,0.00,,,0.00,Rainwise IP-100,2013-10-23 17:42:00,
2013-10-23 13:47:00,46.0,31.0,29.80,NNW,337,4.0,11.0,56,0.00,,,0.00,Rainwise IP-100,2013-10-23 17:47:00,
2013-10-23 13:52:00,47.0,32.0,29.79,NNW,337,6.0,6.0,55,0.00,,,0.00,Rainwise IP-100,2013-10-23 17:52:00,
2013-10-23 13:57:00,48.0,33.0,29.79,NW,315,9.0,11.0,56,0.00,,,0.00,Rainwise IP-100,2013-10-23 17:57:00,
2013-10-23 14:02:00,48.0,32.0,29.78,NNE,22,10.0,12.0,53,0.00,,,0.00,Rainwise IP-100,2013-10-23 18:02:00,
2013-10-23 14:07:00,48.0,32.0,29.78,NW,315,11.0,13.0,53,0.00,,,0.00,Rainwise IP-100,2013-10-23 18:07:00,
2013-10-23 14:12:00,48.0,32.0,29.78,NNW,337,7.0,13.0,53,0.00,,,0.00,Rainwise IP-100,2013-10-23 18:12:00,
2013-10-23 14:17:00,48.0,31.0,29.78,North,360,3.0,13.0,51,0.00,,,0.00,Rainwise IP-100,2013-10-23 18:17:00,
2013-10-23 14:22:00,47.0,31.0,29.77,NW,315,7.0,12.0,52,0.00,,,0.00,Rainwise IP-100,2013-10-23 18:22:00,
2013-10-23 14:27:00,47.0,29.0,29.77,NW,315,7.0,12.0,51,0.00,,,0.00,Rainwise IP-100,2013-10-23 18:27:00,
2013-10-23 14:32:00,47.0,29.0,29.76,NW,315,8.0,13.0,50,0.00,,,0.00,Rainwise IP-100,2013-10-23 18:32:00,
2013-10-23 14:37:00,47.0,29.0,29.76,NW,315,9.0,16.0,50,0.00,,,0.00,Rainwise IP-100,2013-10-23 18:37:00,
2013-10-23 14:42:00,46.0,29.0,29.77,NW,315,10.0,16.0,50,0.00,,,0.00,Rainwise IP-100,2013-10-23 18:42:00,
2013-10-23 14:47:00,47.0,29.0,29.77,WNW,292,7.0,14.0,50,0.00,,,0.00,Rainwise IP-100,2013-10-23 18:47:00,
2013-10-23 14:52:00,47.0,29.0,29.76,WNW,292,7.0,10.0,50,0.00,,,0.00,Rainwise IP-100,2013-10-23 18:52:00,
2013-10-23 14:57:00,47.0,29.0,29.76,NNW,337,6.0,14.0,51,0.00,,,0.00,Rainwise IP-100,2013-10-23 18:57:00,
2013-10-23 15:02:00,48.0,29.0,29.76,North,360,8.0,13.0,47,0.00,,,0.00,Rainwise IP-100,2013-10-23 19:02:00,
2013-10-23 15:07:00,48.0,31.0,29.76,NW,315,8.0,15.0,49,0.00,,,0.00,Rainwise IP-100,2013-10-23 19:07:00,
2013-10-23 15:12:00,49.0,29.0,29.76,NW,315,9.0,12.0,47,0.00,,,0.00,Rainwise IP-100,2013-10-23 19:12:00,
2013-10-23 15:17:00,48.0,29.0,29.76,NNW,337,6.0,13.0,48,0.00,,,0.00,Rainwise IP-100,2013-10-23 19:17:00,
2013-10-23 15:22:00,49.0,29.0,29.75,North,360,9.0,10.0,46,0.00,,,0.00,Rainwise IP-100,2013-10-23 19:22:00,
2013-10-23 15:27:00,49.0,31.0,29.75,North,360,6.0,13.0,49,0.00,,,0.00,Rainwise IP-100,2013-10-23 19:27:00,
2013-10-23 15:32:00,48.0,29.0,29.76,NW,315,9.0,12.0,48,0.00,,,0.00,Rainwise IP-100,2013-10-23 19:32:00,
2013-10-23 15:37:00,48.0,32.0,29.76,WNW,292,6.0,12.0,52,0.00,,,0.00,Rainwise IP-100,2013-10-23 19:37:00,
2013-10-23 15:42:00,48.0,32.0,29.76,WNW,292,5.0,13.0,53,0.00,,,0.00,Rainwise IP-100,2013-10-23 19:42:00,
2013-10-23 15:47:00,47.0,29.0,29.76,WNW,292,6.0,13.0,49,0.00,,,0.00,Rainwise IP-100,2013-10-23 19:47:00,
2013-10-23 15:52:00,47.0,29.0,29.77,NW,315,9.0,13.0,51,0.00,,,0.00,Rainwise IP-100,2013-10-23 19:52:00,
2013-10-23 15:57:00,47.0,29.0,29.77,NW,315,7.0,11.0,50,0.00,,,0.00,Rainwise IP-100,2013-10-23 19:57:00,
2013-10-23 16:02:00,47.0,29.0,29.76,NW,315,5.0,12.0,51,0.00,,,0.00,Rainwise IP-100,2013-10-23 20:02:00,
2013-10-23 16:07:00,46.0,29.0,29.76,WNW,292,5.0,9.0,52,0.00,,,0.00,Rainwise IP-100,2013-10-23 20:07:00,
2013-10-23 16:12:00,47.0,29.0,29.76,West,270,6.0,9.0,50,0.00,,,0.00,Rainwise IP-100,2013-10-23 20:12:00,
2013-10-23 16:17:00,47.0,31.0,29.76,NW,315,6.0,7.0,53,0.00,,,0.00,Rainwise IP-100,2013-10-23 20:17:00,
2013-10-23 16:22:00,47.0,31.0,29.76,NW,315,9.0,9.0,54,0.00,,,0.00,Rainwise IP-100,2013-10-23 20:22:00,
2013-10-23 16:27:00,47.0,31.0,29.76,NW,315,5.0,9.0,53,0.00,,,0.00,Rainwise IP-100,2013-10-23 20:27:00,
2013-10-23 16:32:00,47.0,31.0,29.76,NW,315,6.0,7.0,52,0.00,,,0.00,Rainwise IP-100,2013-10-23 20:32:00,
2013-10-23 16:37:00,46.0,29.0,29.76,NNW,337,6.0,7.0,52,0.00,,,0.00,Rainwise IP-100,2013-10-23 20:37:00,
2013-10-23 16:42:00,47.0,31.0,29.76,North,360,2.0,7.0,52,0.00,,,0.00,Rainwise IP-100,2013-10-23 20:42:00,
2013-10-23 16:47:00,46.0,29.0,29.76,NW,315,5.0,7.0,53,0.00,,,0.00,Rainwise IP-100,2013-10-23 20:47:00,
2013-10-23 16:52:00,46.0,29.0,29.77,NW,315,5.0,6.0,53,0.00,,,0.00,Rainwise IP-100,2013-10-23 20:52:00,
2013-10-23 16:57:00,46.0,31.0,29.77,West,270,3.0,6.0,55,0.00,,,0.00,Rainwise IP-100,2013-10-23 20:57:00,
2013-10-23 17:02:00,45.0,31.0,29.76,West,270,2.0,6.0,55,0.00,,,0.00,Rainwise IP-100,2013-10-23 21:02:00,
2013-10-23 17:07:00,45.0,31.0,29.76,West,270,3.0,5.0,56,0.00,,,0.00,Rainwise IP-100,2013-10-23 21:07:00,
2013-10-23 17:12:00,45.0,31.0,29.77,West,270,5.0,7.0,56,0.00,,,0.00,Rainwise IP-100,2013-10-23 21:12:00,
2013-10-23 17:17:00,45.0,31.0,29.77,West,270,2.0,7.0,57,0.00,,,0.00,Rainwise IP-100,2013-10-23 21:17:00,
2013-10-23 17:22:00,44.0,31.0,29.77,WNW,292,3.0,6.0,59,0.00,,,0.00,Rainwise IP-100,2013-10-23 21:22:00,
2013-10-23 17:27:00,44.0,31.0,29.77,West,270,4.0,6.0,57,0.00,,,0.00,Rainwise IP-100,2013-10-23 21:27:00,
2013-10-23 17:32:00,44.0,31.0,29.78,WSW,247,3.0,5.0,59,0.00,,,0.00,Rainwise IP-100,2013-10-23 21:32:00,
2013-10-23 17:37:00,44.0,31.0,29.78,West,270,2.0,4.0,60,0.00,,,0.00,Rainwise IP-100,2013-10-23 21:37:00,
2013-10-23 17:42:00,44.0,31.0,29.78,WNW,292,2.0,6.0,58,0.00,,,0.00,Rainwise IP-100,2013-10-23 21:42:00,
2013-10-23 17:47:00,44.0,31.0,29.78,WNW,292,1.0,4.0,58,0.00,,,0.00,Rainwise IP-100,2013-10-23 21:47:00,
2013-10-23 17:52:00,44.0,31.0,29.78,NW,315,2.0,5.0,59,0.00,,,0.00,Rainwise IP-100,2013-10-23 21:52:00,
2013-10-23 17:57:00,44.0,31.0,29.78,NW,315,5.0,5.0,58,0.00,,,0.00,Rainwise IP-100,2013-10-23 21:57:00,
2013-10-23 18:02:00,44.0,31.0,29.78,NW,315,2.0,6.0,58,0.00,,,0.00,Rainwise IP-100,2013-10-23 22:02:00,
2013-10-23 18:07:00,44.0,31.0,29.78,NW,315,1.0,4.0,59,0.00,,,0.00,Rainwise IP-100,2013-10-23 22:07:00,
2013-10-23 18:12:00,43.0,29.0,29.78,NW,315,1.0,5.0,58,0.00,,,0.00,Rainwise IP-100,2013-10-23 22:12:00,
2013-10-23 18:17:00,43.0,31.0,29.78,NNW,337,5.0,7.0,59,0.00,,,0.00,Rainwise IP-100,2013-10-23 22:17:00,
2013-10-23 18:22:00,43.0,31.0,29.78,NNW,337,1.0,7.0,59,0.00,,,0.00,Rainwise IP-100,2013-10-23 22:22:00,
2013-10-23 18:27:00,43.0,31.0,29.78,North,360,2.0,3.0,59,0.00,,,0.00,Rainwise IP-100,2013-10-23 22:27:00,
2013-10-23 18:32:00,43.0,31.0,29.79,North,360,0.0,3.0,62,0.00,,,0.00,Rainwise IP-100,2013-10-23 22:32:00,
2013-10-23 18:37:00,43.0,31.0,29.79,NNE,22,0.0,3.0,61,0.00,,,0.00,Rainwise IP-100,2013-10-23 22:37:00,
2013-10-23 18:42:00,43.0,32.0,29.79,NNE,22,0.0,2.0,64,0.00,,,0.00,Rainwise IP-100,2013-10-23 22:42:00,
2013-10-23 18:47:00,43.0,31.0,29.79,NNE,22,1.0,3.0,62,0.00,,,0.00,Rainwise IP-100,2013-10-23 22:47:00,
2013-10-23 18:52:00,43.0,32.0,29.79,NNE,22,0.0,2.0,64,0.00,,,0.00,Rainwise IP-100,2013-10-23 22:52:00,
2013-10-23 18:57:00,43.0,32.0,29.79,NNE,22,0.0,0.0,66,0.00,,,0.00,Rainwise IP-100,2013-10-23 22:57:00,
2013-10-23 19:02:00,42.0,32.0,29.79,NNE,22,0.0,0.0,67,0.00,,,0.00,Rainwise IP-100,2013-10-23 23:02:00,
2013-10-23 19:07:00,42.0,32.0,29.79,NNE,22,0.0,0.0,66,0.00,,,0.00,Rainwise IP-100,2013-10-23 23:07:00,
2013-10-23 19:12:00,42.0,32.0,29.79,NNE,22,0.0,0.0,66,0.00,,,0.00,Rainwise IP-100,2013-10-23 23:12:00,
2013-10-23 19:17:00,42.0,32.0,29.79,NNE,22,0.0,0.0,68,0.00,,,0.00,Rainwise IP-100,2013-10-23 23:17:00,
2013-10-23 19:22:00,42.0,32.0,29.80,NNE,22,0.0,0.0,66,0.00,,,0.00,Rainwise IP-100,2013-10-23 23:22:00,
2013-10-23 19:27:00,42.0,31.0,29.80,NNE,22,0.0,0.0,64,0.00,,,0.00,Rainwise IP-100,2013-10-23 23:27:00,
2013-10-23 19:32:00,42.0,32.0,29.79,NNE,22,0.0,0.0,66,0.00,,,0.00,Rainwise IP-100,2013-10-23 23:32:00,
2013-10-23 19:37:00,42.0,35.0,29.79,SE,135,3.0,4.0,73,0.00,,,0.00,Rainwise IP-100,2013-10-23 23:37:00,
2013-10-23 19:42:00,42.0,36.0,29.79,SE,135,3.0,4.0,76,0.00,,,0.00,Rainwise IP-100,2013-10-23 23:42:00,
2013-10-23 19:47:00,42.0,33.0,29.79,SE,135,2.0,4.0,71,0.00,,,0.00,Rainwise IP-100,2013-10-23 23:47:00,
2013-10-23 19:52:00,42.0,36.0,29.79,SE,135,0.0,2.0,76,0.00,,,0.00,Rainwise IP-100,2013-10-23 23:52:00,
2013-10-23 19:57:00,41.0,35.0,29.79,SE,135,0.0,0.0,77,0.00,,,0.00,Rainwise IP-100,2013-10-23 23:57:00,
2013-10-23 20:02:00,41.0,35.0,29.80,NW,315,1.0,4.0,75,0.00,,,0.00,Rainwise IP-100,2013-10-24 00:02:00,
2013-10-23 20:07:00,41.0,32.0,29.80,NW,315,6.0,12.0,71,0.00,,,0.00,Rainwise IP-100,2013-10-24 00:07:00,
2013-10-23 20:12:00,42.0,33.0,29.79,WNW,292,2.0,6.0,71,0.00,,,0.00,Rainwise IP-100,2013-10-24 00:12:00,
2013-10-23 20:17:00,41.0,32.0,29.79,West,270,0.0,3.0,71,0.00,,,0.00,Rainwise IP-100,2013-10-24 00:17:00,
2013-10-23 20:22:00,41.0,33.0,29.79,SSW,202,0.0,1.0,72,0.00,,,0.00,Rainwise IP-100,2013-10-24 00:22:00,
2013-10-23 20:27:00,41.0,33.0,29.79,SSW,202,0.0,0.0,72,0.00,,,0.00,Rainwise IP-100,2013-10-24 00:27:00,
2013-10-23 20:32:00,41.0,32.0,29.80,SSW,202,0.0,0.0,71,0.00,,,0.00,Rainwise IP-100,2013-10-24 00:32:00,
2013-10-23 20:37:00,41.0,33.0,29.80,NW,315,6.0,7.0,73,0.00,,,0.00,Rainwise IP-100,2013-10-24 00:37:00,
2013-10-23 20:42:00,41.0,33.0,29.79,NW,315,2.0,6.0,73,0.00,,,0.00,Rainwise IP-100,2013-10-24 00:42:00,
2013-10-23 20:47:00,41.0,33.0,29.79,NW,315,5.0,6.0,73,0.00,,,0.00,Rainwise IP-100,2013-10-24 00:47:00,
2013-10-23 20:52:00,41.0,33.0,29.80,NW,315,6.0,9.0,74,0.00,,,0.00,Rainwise IP-100,2013-10-24 00:52:00,
2013-10-23 20:57:00,41.0,33.0,29.80,North,360,8.0,10.0,74,0.00,,,0.00,Rainwise IP-100,2013-10-24 00:57:00,
2013-10-23 21:02:00,41.0,35.0,29.80,NNW,337,1.0,9.0,75,0.00,,,0.00,Rainwise IP-100,2013-10-24 01:02:00,
2013-10-23 21:07:00,41.0,35.0,29.80,NE,45,3.0,6.0,77,0.00,,,0.00,Rainwise IP-100,2013-10-24 01:07:00,
2013-10-23 21:12:00,40.0,35.0,29.80,NE,45,4.0,4.0,78,0.00,,,0.00,Rainwise IP-100,2013-10-24 01:12:00,
2013-10-23 21:17:00,40.0,35.0,29.80,NE,45,2.0,6.0,78,0.00,,,0.00,Rainwise IP-100,2013-10-24 01:17:00,
2013-10-23 21:22:00,40.0,35.0,29.81,NE,45,1.0,5.0,78,0.00,,,0.00,Rainwise IP-100,2013-10-24 01:22:00,
2013-10-23 21:27:00,40.0,35.0,29.81,North,360,0.0,5.0,79,0.00,,,0.00,Rainwise IP-100,2013-10-24 01:27:00,
2013-10-23 21:32:00,40.0,35.0,29.81,North,360,2.0,4.0,79,0.00,,,0.00,Rainwise IP-100,2013-10-24 01:32:00,
2013-10-23 21:37:00,40.0,35.0,29.81,NNE,22,2.0,6.0,79,0.00,,,0.00,Rainwise IP-100,2013-10-24 01:37:00,
2013-10-23 21:42:00,40.0,35.0,29.80,NNE,22,1.0,2.0,79,0.00,,,0.00,Rainwise IP-100,2013-10-24 01:42:00,
2013-10-23 21:47:00,40.0,35.0,29.80,NNE,22,0.0,2.0,79,0.00,,,0.00,Rainwise IP-100,2013-10-24 01:47:00,
2013-10-23 21:52:00,40.0,35.0,29.81,NNE,22,0.0,1.0,78,0.00,,,0.00,Rainwise IP-100,2013-10-24 01:52:00,
2013-10-23 21:57:00,40.0,35.0,29.81,WNW,292,3.0,4.0,79,0.00,,,0.00,Rainwise IP-100,2013-10-24 01:57:00,
2013-10-23 22:02:00,40.0,35.0,29.81,WNW,292,2.0,4.0,80,0.00,,,0.00,Rainwise IP-100,2013-10-24 02:02:00,
2013-10-23 22:07:00,40.0,35.0,29.81,WNW,292,2.0,4.0,79,0.00,,,0.00,Rainwise IP-100,2013-10-24 02:07:00,
2013-10-23 22:12:00,40.0,35.0,29.81,WNW,292,0.0,2.0,78,0.00,,,0.00,Rainwise IP-100,2013-10-24 02:12:00,
2013-10-23 22:17:00,39.0,33.0,29.81,West,270,0.0,4.0,78,0.00,,,0.00,Rainwise IP-100,2013-10-24 02:17:00,
2013-10-23 22:22:00,40.0,35.0,29.81,NW,315,2.0,2.0,78,0.00,,,0.00,Rainwise IP-100,2013-10-24 02:22:00,
2013-10-23 22:27:00,40.0,35.0,29.81,NNW,337,4.0,6.0,79,0.00,,,0.00,Rainwise IP-100,2013-10-24 02:27:00,
2013-10-23 22:32:00,40.0,35.0,29.81,NW,315,5.0,7.0,78,0.00,,,0.00,Rainwise IP-100,2013-10-24 02:32:00,
2013-10-23 22:37:00,39.0,33.0,29.81,NW,315,2.0,7.0,78,0.00,,,0.00,Rainwise IP-100,2013-10-24 02:37:00,
2013-10-23 22:42:00,39.0,33.0,29.81,West,270,2.0,7.0,79,0.00,,,0.00,Rainwise IP-100,2013-10-24 02:42:00,
2013-10-23 22:47:00,39.0,33.0,29.81,WNW,292,3.0,7.0,80,0.00,,,0.00,Rainwise IP-100,2013-10-24 02:47:00,
2013-10-23 22:52:00,39.0,35.0,29.82,NNW,337,6.0,6.0,82,0.00,,,0.00,Rainwise IP-100,2013-10-24 02:52:00,
2013-10-23 22:57:00,39.0,35.0,29.82,NW,315,5.0,8.0,82,0.00,,,0.00,Rainwise IP-100,2013-10-24 02:57:00,
2013-10-23 23:02:00,39.0,35.0,29.82,WNW,292,4.0,6.0,83,0.00,,,0.00,Rainwise IP-100,2013-10-24 03:02:00,
2013-10-23 23:07:00,38.0,35.0,29.82,NW,315,6.0,9.0,86,0.00,,,0.00,Rainwise IP-100,2013-10-24 03:07:00,
2013-10-23 23:12:00,38.0,35.0,29.83,NW,315,5.0,10.0,87,0.00,,,0.00,Rainwise IP-100,2013-10-24 03:12:00,
2013-10-23 23:17:00,38.0,35.0,29.83,NNW,337,4.0,7.0,89,0.00,,,0.00,Rainwise IP-100,2013-10-24 03:17:00,
2013-10-23 23:22:00,38.0,36.0,29.83,North,360,2.0,6.0,91,0.00,,,0.00,Rainwise IP-100,2013-10-24 03:22:00,
2013-10-23 23:27:00,37.0,35.0,29.83,NW,315,4.0,6.0,91,0.00,,,0.00,Rainwise IP-100,2013-10-24 03:27:00,
2013-10-23 23:32:00,37.0,35.0,29.83,NW,315,1.0,6.0,91,0.00,,,0.00,Rainwise IP-100,2013-10-24 03:32:00,
2013-10-23 23:37:00,37.0,35.0,29.83,NW,315,0.0,2.0,92,0.00,,,0.00,Rainwise IP-100,2013-10-24 03:37:00,
2013-10-23 23:42:00,37.0,35.0,29.83,NW,315,0.0,4.0,93,0.00,,,0.00,Rainwise IP-100,2013-10-24 03:42:00,
2013-10-23 23:47:00,37.0,36.0,29.83,West,270,3.0,5.0,94,0.00,,,0.00,Rainwise IP-100,2013-10-24 03:47:00,
2013-10-23 23:52:00,36.0,35.0,29.83,West,270,2.0,3.0,94,0.00,,,0.00,Rainwise IP-100,2013-10-24 03:52:00,
2013-10-23 23:57:00,36.0,35.0,29.83,West,270,2.0,4.0,95,0.00,,,0.00,Rainwise IP-100,2013-10-24 03:57:00,